Tracking 27423 objects as of 9-Jun-2023
HD Live streaming from Space Station
objects crossing your sky now

STARLINK-1956

Track STARLINK-1956 now!
10-day predictions
STARLINK-1956 is classified as:


NORAD ID: 47557
Int'l Code: 2021-009K
Perigee: 553.7 km
Apogee: 555.0 km
Inclination: 53.1 °
Period: 95.6 minutes
Semi major axis: 6925 km
RCS: Unknown
Launch date: February 4, 2021
Source: United States (US)
Launch site: AIR FORCE EASTERN TEST RANGE (AFETR)
Your satellite tracking list
Your tracking list is empty




NASA's NSSDC Master Catalog

Two Line Element Set (TLE):
1 47557U 21009K   23159.51291548  .00001729  00000-0  13494-3 0  9998
2 47557  53.0518 234.0336 0000953  94.5295 265.5803 15.06395390129017
Source of the keplerian elements: AFSPC